Theta_e
273 273 273 273 273 272 273 274 275 275 275 276 276 276 276 275 276 278 277 277 280 284
271 271 271 271 272 272 273 274 274 275 274 274 275 275 275 274 274 274 275 275 276 278
270 270 270 270 270 271 272 272 273 273 273 273 274 274 274 274 274 273 274 276 276 279
270 270 270 269 270 270 271 271 271 272 272 272 272 273 273 273 273 272 273 273 273 275
269 269 268 268 269 270 270 270 270 270 270 270 270 271 271 271 272 271 271 272 273 274
267 267 267 268 268 269 269 269 269 269 268 268 269 269 270 270 270 271 271 271 271 273
267 267 267 267 267 267 267 266 266 267 267 267 267 268 269 269 270 270 271 272 272 273
266 266 266 266 266 266 265 265 265 265 265 265 266 267 267 269 270 270 270 271 272 273
265 265 264 264 264 263 263 263 263 264 264 264 266 270 272 273 272 272 272 273 274 275
264 262 262 262 262 261 261 262 263 263 263 264 265 269 272 274 273 273 273 273 273 274
262 261 261 260 259 260 261 262 262 262 263 264 265 270 272 273 273 273 274 274 274 274
260 258 258 256 258 259 261 260 260 263 262 262 263 269 272 273 273 274 275 275 274 274
259 256 256 257 257 260 259 261 262 262 262 263 263 269 272 273 272 273 274 275 275 276
258 256 256 257 258 258 259 260 260 262 263 265 266 267 271 274 272 271 271 273 276 275
Wind_Speed
6 4 6 7 8 9 9 10 12 11 12 13 13 13 13 12 12 14 12 17 16 13
5 6 7 10 9 9 11 11 14 14 15 15 15 15 15 12 15 15 14 15 17 16
6 6 8 9 11 12 12 14 15 16 16 16 15 15 15 14 15 16 14 12 15 15
6 7 9 10 11 12 13 15 16 17 18 17 17 16 16 17 18 19 17 17 18 20
7 8 9 10 12 13 14 15 17 17 18 18 18 17 18 18 17 18 19 18 18 18
7 8 10 11 12 13 15 15 16 17 18 19 19 18 18 18 19 19 19 19 19 18
8 9 10 12 13 13 13 16 16 16 18 18 19 20 20 20 19 18 17 19 18 18
9 10 10 12 13 13 14 14 16 18 17 18 17 14 18 19 19 19 19 19 19 19
10 11 12 13 13 15 15 15 16 17 18 18 14 28 31 27 18 19 19 18 17 18
10 11 12 14 13 14 15 15 17 17 18 18 19 31 32 30 18 18 18 18 18 16
9 10 13 13 13 14 13 15 16 17 17 18 17 32 32 31 19 17 20 19 20 19
9 10 13 13 14 13 14 15 15 15 17 18 19 31 31 27 16 16 21 19 18 17
9 8 11 13 14 13 13 15 14 16 15 19 21 28 30 27 13 15 14 13 17 22
8 9 9 12 13 12 13 14 15 16 15 16 18 19 30 29 14 13 14 13 12 10
Wind_Direction
293 298 288 287 293 291 286 289 292 286 283 283 281 278 275 272 272 274 277 275 273 282
284 285 292 295 291 286 291 294 294 291 288 283 279 277 275 270 270 267 269 267 264 266
294 291 291 293 291 291 292 292 290 289 287 285 281 280 277 272 268 270 266 270 279 276
297 300 296 291 293 293 292 292 291 290 289 286 284 282 277 271 272 268 268 269 265 264
300 300 296 294 296 299 295 292 291 292 292 291 288 285 279 276 272 271 269 268 268 272
300 304 301 302 299 299 295 294 295 295 291 291 289 285 278 274 272 269 269 268 269 267
309 310 301 302 301 299 300 301 299 294 292 290 289 285 283 281 278 273 268 267 262 265
311 304 306 307 301 306 309 304 299 298 295 293 286 283 282 277 273 268 264 262 262 262
312 315 309 309 316 316 313 307 302 298 296 296 289 290 290 287 276 274 273 271 264 261
314 312 318 321 321 317 312 307 306 304 302 298 294 293 290 286 276 270 264 266 268 265
320 315 323 321 323 312 310 311 310 304 301 305 302 300 298 293 281 272 267 253 254 258
328 321 323 315 316 315 312 309 301 303 311 307 300 302 303 298 285 282 281 250 245 246
329 320 311 310 310 311 303 304 306 306 304 302 296 298 310 307 293 291 309 268 252 243
326 313 301 303 304 305 307 309 303 305 311 310 305 309 311 309 316 304 297 286 280 240